User: anonymous   Login
Location: Pine Mountain Observatory
(43.7910°N, 120.9377°W)
Time: 18:59:18
(UTC-07:00)
Language:

IDEFIX/ARIANE 42P - Orbit

View from above orbital plane
View from above orbital plane
View from above satellite
View from above satellite

Ground track
Ground track

The orbit data is extracted from the following two-line orbital elements,

1 27422U 02021B   16183.63423385 -.00000013  00000-0  10923-4 0  9999
2 27422  98.2296 197.3595 0012036 189.7410 170.3542 14.29245919736606
Epoch (UTC): 01 July 2016 15:13:17
Eccentricity: 0.0012036
inclination: 98.2296°
perigee height: 785 km
apogee height: 803 km
right ascension of ascending node: 197.3595°
argument of perigee: 189.7410°
revolutions per day: 14.29245919
mean anomaly at epoch: 170.3542°
orbit number at epoch: 73660

The dashed part of the orbit path shows where the satellite is in the earth's shadow,  

DLR